Date String (YYYY-MM-DD hh:mm:ss) UTC,Instrument flags,absolute air pressure of the measurement (hPa),sample flow rate (lpm),inlet stack bypass flow (lpm),air temperature of the measurement (°C),ambient temperature measured by the external sensor (°C),aerosol sample conditioner tube jacket temperature (°C),OPC LED temperature (°C),internal box temperature (°C),relative humidity of the measurement (%),span deviation,mass concentration of particles derived from Lorenz-Mie calculation of OPC scattering (μg/m³),mass concentration of particles derived from Lorenz-Mie calculation of OPC scattering (μg/m³),mass concentration of particles derived from Lorenz-Mie calculation of OPC scattering (μg/m³)
DateTimeUTC,F1_M11,P_M11,Q1_M11,Q2_M11,T1_M11,T2_M11,T3_M11,T4_M11,T5_M11,U1_M11,ZSPAN_M11,X0_M11,X2_M11,X1_M11
2023-08-13 09:00:00,SystemResetWarning,0830.6,5.01,000.00,029.5,026.2,000.0,037.8,030.9,20.9,0000.0,0006.80,0003.04,0002.29
2023-08-13 09:01:00,SystemResetWarning,0830.6,5.01,000.00,029.4,025.7,000.0,037.7,030.7,21.0,0000.0,0006.84,0003.04,0002.28
2023-08-13 09:02:00,SystemResetWarning,0830.6,5.01,000.00,029.3,025.8,000.0,037.7,030.6,21.1,0000.0,0007.09,0003.08,0002.28
2023-08-13 09:03:00,SystemResetWarning,0830.6,5.00,000.00,029.3,026.1,000.0,037.8,030.6,21.3,0000.0,0006.83,0003.11,0002.28
2023-08-13 09:04:00,SystemResetWarning,0830.6,5.00,000.00,029.3,026.5,000.0,037.8,030.7,21.1,0000.0,0007.34,0003.11,0002.28
2023-08-13 09:05:00,SystemResetWarning,0830.6,5.00,000.00,029.3,026.8,000.0,037.8,030.8,21.1,0000.0,0008.02,0003.08,0002.29
2023-08-13 09:06:00,SystemResetWarning,0830.7,5.00,000.00,029.3,027.1,000.0,037.8,030.9,21.2,0000.0,0008.03,0003.10,0002.29
2023-08-13 09:07:00,SystemResetWarning,0830.6,5.00,000.00,029.3,027.4,000.0,037.8,030.9,21.1,0000.0,0007.77,0003.14,0002.29
2023-08-13 09:08:00,SystemResetWarning,0830.6,5.00,000.00,029.3,027.6,000.0,037.9,031.0,21.0,0000.0,0007.87,0003.17,0002.31
2023-08-13 09:09:00,SystemResetWarning,0830.6,5.00,000.00,029.3,027.8,000.0,037.9,031.0,21.0,0000.0,0008.27,0003.16,0002.31
2023-08-13 09:10:00,SystemResetWarning,0830.6,5.01,000.00,029.4,027.9,000.0,037.9,031.1,21.0,0000.0,0008.40,0003.14,0002.32
2023-08-13 09:11:00,SystemResetWarning,0830.6,5.00,000.00,029.4,028.0,000.0,037.9,031.1,20.9,0000.0,0008.42,0003.14,0002.33
2023-08-13 09:12:00,SystemResetWarning,0830.7,5.00,000.00,029.4,028.1,000.0,037.9,031.1,21.0,0000.0,0008.65,0003.17,0002.34
2023-08-13 09:13:00,SystemResetWarning,0830.6,5.00,000.00,029.5,028.2,000.0,038.0,031.2,20.9,0000.0,0008.70,0003.18,0002.34
2023-08-13 09:14:00,SystemResetWarning,0830.7,4.99,000.00,029.5,028.3,000.0,038.0,031.2,21.0,0000.0,0008.91,0003.17,0002.35
2023-08-13 09:15:00,SystemResetWarning,0830.7,5.00,000.00,029.5,028.4,000.0,038.0,031.3,21.0,0000.0,0008.57,0003.18,0002.35
2023-08-13 09:16:00,SystemResetWarning,0830.7,5.01,000.00,029.6,028.1,000.0,038.0,031.2,20.9,0000.0,0007.67,0003.17,0002.36
2023-08-13 09:17:00,SystemResetWarning,0830.7,5.00,000.00,029.5,026.3,000.0,037.8,030.9,21.0,0000.0,0007.66,0003.16,0002.37
2023-08-13 09:18:00,SystemResetWarning,0830.7,5.01,000.00,029.5,025.6,000.0,037.7,030.8,21.1,0000.0,0007.55,0003.12,0002.37
2023-08-13 09:19:00,SystemResetWarning,0830.7,5.01,000.00,029.4,025.8,000.0,037.8,030.7,21.1,0000.0,0007.41,0003.08,0002.35
2023-08-13 09:20:00,SystemResetWarning,0830.7,5.00,000.00,029.3,026.1,000.0,037.8,030.7,21.0,0000.0,0006.88,0003.09,0002.37
2023-08-13 09:21:00,SystemResetWarning,0830.8,5.00,000.00,029.3,026.5,000.0,037.8,030.8,21.1,0000.0,0006.26,0003.10,0002.38
2023-08-13 09:22:00,SystemResetWarning,0830.8,5.00,000.00,029.3,026.8,000.0,037.9,030.8,21.1,0000.0,0006.19,0003.11,0002.38
2023-08-13 09:23:00,SystemResetWarning,0830.8,5.00,000.00,029.3,027.1,000.0,037.9,030.9,21.2,0000.0,0005.82,0003.12,0002.39
2023-08-13 09:24:00,SystemResetWarning,0830.8,4.98,000.00,029.3,027.4,000.0,037.9,030.9,21.2,0000.0,0005.36,0003.08,0002.39
2023-08-13 09:25:00,SystemResetWarning,0830.8,5.01,000.00,029.3,027.6,000.0,037.9,031.0,21.2,0000.0,0004.70,0003.07,0002.39
2023-08-13 09:26:00,SystemResetWarning,0830.8,5.01,000.00,029.4,027.8,000.0,037.9,031.0,21.2,0000.0,0004.41,0003.01,0002.38
2023-08-13 09:27:00,SystemResetWarning,0830.8,5.00,000.00,029.4,027.9,000.0,037.9,031.1,21.2,0000.0,0004.28,0002.97,0002.37
2023-08-13 09:28:00,SystemResetWarning,0830.9,5.00,000.00,029.4,028.0,000.0,037.9,031.1,21.1,0000.0,0004.17,0002.97,0002.36
2023-08-13 09:29:00,SystemResetWarning,0830.8,4.99,000.00,029.5,028.1,000.0,037.9,031.2,21.1,0000.0,0004.26,0002.99,0002.36
2023-08-13 09:30:00,SystemResetWarning,0830.8,5.00,000.00,029.5,028.2,000.0,038.0,031.2,21.1,0000.0,0004.48,0003.06,0002.38
2023-08-13 09:31:00,SystemResetWarning,0830.9,5.01,000.00,029.5,028.3,000.0,038.0,031.2,21.0,0000.0,0004.43,0003.05,0002.38
2023-08-13 09:32:00,SystemResetWarning,0830.9,5.01,000.00,029.6,028.4,000.0,038.0,031.3,21.0,0000.0,0004.68,0003.03,0002.38
2023-08-13 09:33:00,SystemResetWarning,0830.9,4.99,000.00,029.6,027.2,000.0,037.9,031.1,21.0,0000.0,0004.78,0003.06,0002.37
2023-08-13 09:34:00,SystemResetWarning,0830.8,5.01,000.00,029.5,025.8,000.0,037.8,030.8,21.0,0000.0,0004.44,0002.96,0002.36
2023-08-13 09:35:00,SystemResetWarning,0830.8,5.01,000.00,029.4,025.7,000.0,037.7,030.6,21.0,0000.0,0004.57,0002.97,0002.36
2023-08-13 09:36:00,SystemResetWarning,0830.9,5.00,000.00,029.3,025.9,000.0,037.8,030.5,21.1,0000.0,0004.77,0002.99,0002.36
2023-08-13 09:37:00,SystemResetWarning,0830.8,5.00,000.00,029.3,026.3,000.0,037.8,030.6,21.2,0000.0,0004.87,0003.01,0002.37
2023-08-13 09:38:00,SystemResetWarning,0830.8,5.01,000.00,029.3,026.6,000.0,037.8,030.8,21.3,0000.0,0004.93,0003.00,0002.37
2023-08-13 09:39:00,SystemResetWarning,0830.9,5.00,000.00,029.3,027.0,000.0,037.8,030.8,21.4,0000.0,0005.02,0003.01,0002.37
2023-08-13 09:40:00,SystemResetWarning,0830.8,5.01,000.00,029.3,027.2,000.0,037.9,030.9,21.4,0000.0,0004.86,0002.96,0002.37
2023-08-13 09:41:00,SystemResetWarning,0830.9,5.00,000.00,029.3,027.5,000.0,037.9,031.0,21.4,0000.0,0004.77,0002.89,0002.35
2023-08-13 09:42:00,SystemResetWarning,0830.9,5.00,000.00,029.4,027.7,000.0,037.9,031.0,21.4,0000.0,0004.84,0002.90,0002.34
2023-08-13 09:43:00,SystemResetWarning,0830.9,4.99,000.00,029.4,027.9,000.0,037.9,031.1,21.4,0000.0,0004.56,0002.93,0002.34
2023-08-13 09:44:00,SystemResetWarning,0830.9,5.00,000.00,029.4,028.0,000.0,037.9,031.1,21.4,0000.0,0004.40,0002.88,0002.34
2023-08-13 09:45:00,SystemResetWarning,0830.9,5.00,000.00,029.4,028.2,000.0,037.9,031.2,21.3,0000.0,0004.37,0002.87,0002.34
2023-08-13 09:46:00,SystemResetWarning,0830.9,5.00,000.00,029.5,028.3,000.0,038.0,031.2,21.2,0000.0,0004.16,0002.80,0002.32
2023-08-13 09:47:00,SystemResetWarning,0830.9,5.00,000.00,029.5,028.4,000.0,038.0,031.2,21.1,0000.0,0003.96,0002.75,0002.30
2023-08-13 09:48:00,SystemResetWarning,0831.0,4.99,000.00,029.6,028.4,000.0,038.0,031.3,21.2,0000.0,0004.17,0002.78,0002.29
2023-08-13 09:49:00,SystemResetWarning,0830.9,4.99,000.00,029.6,027.3,000.0,037.9,031.1,21.1,0000.0,0004.15,0002.81,0002.29
2023-08-13 09:50:00,SystemResetWarning,0830.9,5.01,000.00,029.5,025.8,000.0,037.8,030.8,21.2,0000.0,0004.16,0002.80,0002.28
2023-08-13 09:51:00,SystemResetWarning,0830.9,5.01,000.00,029.4,025.8,000.0,037.7,030.7,21.3,0000.0,0004.70,0002.90,0002.29
2023-08-13 09:52:00,SystemResetWarning,0830.9,5.00,000.00,029.3,026.0,000.0,037.8,030.6,21.4,0000.0,0005.22,0002.94,0002.29
2023-08-13 09:53:00,SystemResetWarning,0830.9,5.00,000.00,029.3,026.3,000.0,037.8,030.7,21.5,0000.0,0005.17,0002.92,0002.28
2023-08-13 09:54:00,SystemResetWarning,0830.9,5.00,000.00,029.3,026.7,000.0,037.8,030.8,21.4,0000.0,0005.82,0002.89,0002.28
2023-08-13 09:55:00,SystemResetWarning,0830.9,5.00,000.00,029.3,027.0,000.0,037.9,030.9,21.3,0000.0,0007.58,0002.97,0002.29
2023-08-13 09:56:00,SystemResetWarning,0830.9,5.00,000.00,029.3,027.3,000.0,037.9,030.9,21.3,0000.0,0008.45,0003.02,0002.29
2023-08-13 09:57:00,SystemResetWarning,0830.9,4.99,000.00,029.3,027.5,000.0,037.9,031.0,21.2,0000.0,0008.48,0003.04,0002.29
2023-08-13 09:58:00,SystemResetWarning,0830.9,5.00,000.00,029.4,027.7,000.0,037.9,031.0,20.9,0000.0,0008.49,0003.05,0002.30
2023-08-13 09:59:00,SystemResetWarning,0830.9,5.00,000.00,029.4,027.9,000.0,037.9,031.1,20.9,0000.0,0008.47,0003.07,0002.30
